Hauptseite
METAR-TAF:

METAR-TAF

Flughäfen :

Bütgenbach, Belgien

Elsenborn

Breite: 50-28N, Länge: 006-11E, Höhe: 564 m

Beobachtung

Neuester Wetterbericht von vor 24 Minuten, um 18:25 UTC
Wind 7 kt aus West/Südwest
Temperatur 9°C
Luftfeuchtigkeit 100%
Luftdruck 1022 hPa
Sichtweite: 8000 m

METAR: EBLB 231825Z AUTO 24007KT 8000 OVC003/// 09/09 Q1022 YLO

Zeit: 20:49 (18:49 UTC)


TAF: fehlend

Wetterbeobachtungen und Prognosen von mehr als 4000 Flughäfen (METAR und TAF Bericht).

Die verfügbaren Stationen werden durch gelbe und rote Markierungen auf der Karte dargestellt.

Führen Sie die Maus auf sie, um den Namen der Station zu sehen.

Darauf klicken, um die Beobachtung von Wetterbeobachtungen und Prognosen zu sehen.

Um die Karte zu ändern : klicken Sie auf den grünen Tasten mit einem schwarzen Kreuz Zum Vergrößern, auf den grünen Button mit einem Gedankenstrich zu verkleinern, oder auf die grünen Pfeile für benachbarte Karten.


METAR-TAF: